Location: Casilda
(33.0440°S, 61.1680°W)
Time: 14:38:42
(UTC-03:00)

ISS - Pass Details

Date: 14 April 2021
Orbit: 418 x 422 km, 51.6° (Epoch: 17 April)

Event Time Altitude Azimuth Distance (km) Brightness Sun altitude
Exits shadow 06:37:24 12° 300° (WNW) 1,388 -1.6 -10.9°
Maximum altitude 06:37:42 12° 306° (NW) 1,381 -1.6 -10.9°
Drops below altitude 10° 06:39:08 10° 331° (NNW) 1,505 -1.2 -10.6°
Sets 06:42:15 0° 2° (N) 2,359 0.2 -9.9°
